Time,TemperatureF,DewpointF,PressureIn,WindDirection,WindDirectionDegrees,WindSpeedMPH,WindSpeedGustMPH,Humidity,HourlyPrecipIn,Conditions,Clouds,dailyrainin,SoftwareType,DateUTC
2013-03-04 00:01:00,32.0,20.0,-100.00,WSW,241,24.0,42.0,59,0.00,,,-99.99,,2013-03-04 07:01:00,
2013-03-04 00:11:00,32.0,19.0,-100.00,WSW,244,26.0,41.0,58,0.00,,,-99.99,,2013-03-04 07:11:00,
2013-03-04 00:21:00,32.0,18.0,-100.00,WSW,241,26.0,43.0,56,0.00,,,-99.99,,2013-03-04 07:21:00,
2013-03-04 00:32:00,32.0,18.0,-100.00,WSW,240,26.0,42.0,56,0.00,,,-99.99,,2013-03-04 07:32:00,
2013-03-04 00:41:00,32.0,18.0,-100.00,WSW,241,27.0,44.0,55,0.00,,,-99.99,,2013-03-04 07:41:00,
2013-03-04 00:51:00,32.0,19.0,-100.00,WSW,246,28.0,41.0,59,0.00,,,-99.99,,2013-03-04 07:51:00,
2013-03-04 01:02:00,31.0,18.0,-100.00,WSW,247,26.0,47.0,59,0.00,,,-99.99,,2013-03-04 08:02:00,
2013-03-04 01:11:00,31.0,19.0,-100.00,WSW,247,24.0,38.0,60,0.00,,,-99.99,,2013-03-04 08:11:00,
2013-03-04 01:21:00,31.0,18.0,-100.00,WSW,244,26.0,45.0,58,0.00,,,-99.99,,2013-03-04 08:21:00,
2013-03-04 01:32:00,31.0,17.0,-100.00,WSW,240,28.0,50.0,57,0.00,,,-99.99,,2013-03-04 08:32:00,
2013-03-04 01:41:00,31.0,15.0,-100.00,WSW,241,29.0,49.0,52,0.00,,,-99.99,,2013-03-04 08:41:00,
2013-03-04 01:52:00,30.0,16.0,-100.00,WSW,243,30.0,49.0,53,0.00,,,-99.99,,2013-03-04 08:52:00,
2013-03-04 02:01:00,30.0,16.0,-100.00,WSW,246,31.0,52.0,55,0.00,,,-99.99,,2013-03-04 09:01:00,
2013-03-04 02:11:00,30.0,15.0,-100.00,WSW,246,29.0,52.0,54,0.00,,,-99.99,,2013-03-04 09:11:00,
2013-03-04 02:21:00,30.0,16.0,-100.00,WSW,247,27.0,42.0,55,0.00,,,-99.99,,2013-03-04 09:21:00,
2013-03-04 02:32:00,29.0,16.0,-100.00,WSW,243,27.0,44.0,56,0.00,,,-99.99,,2013-03-04 09:32:00,
2013-03-04 02:42:00,30.0,15.0,-100.00,WSW,243,28.0,43.0,54,0.00,,,-99.99,,2013-03-04 09:42:00,
2013-03-04 02:51:00,30.0,16.0,-100.00,WSW,240,26.0,44.0,57,0.00,,,-99.99,,2013-03-04 09:51:00,
2013-03-04 03:01:00,29.0,16.0,-100.00,WSW,240,29.0,44.0,57,0.00,,,-99.99,,2013-03-04 10:01:00,
2013-03-04 03:11:00,29.0,16.0,-100.00,WSW,239,27.0,56.0,57,0.00,,,-99.99,,2013-03-04 10:11:00,
2013-03-04 03:21:00,29.0,17.0,-100.00,WSW,240,28.0,52.0,60,0.00,,,-99.99,,2013-03-04 10:21:00,
2013-03-04 03:32:00,29.0,15.0,-100.00,WSW,237,32.0,54.0,57,0.00,,,-99.99,,2013-03-04 10:32:00,
2013-03-04 03:42:00,28.0,16.0,-100.00,WSW,239,31.0,54.0,59,0.00,,,-99.99,,2013-03-04 10:42:00,
2013-03-04 03:52:00,28.0,16.0,-100.00,SW,236,30.0,47.0,61,0.00,,,-99.99,,2013-03-04 10:52:00,
2013-03-04 04:01:00,28.0,14.0,-100.00,SW,234,32.0,49.0,56,0.00,,,-99.99,,2013-03-04 11:01:00,
2013-03-04 04:11:00,28.0,15.0,-100.00,SW,236,31.0,49.0,58,0.00,,,-99.99,,2013-03-04 11:11:00,
2013-03-04 04:21:00,28.0,14.0,-100.00,WSW,243,29.0,48.0,56,0.00,,,-99.99,,2013-03-04 11:21:00,
2013-03-04 04:32:00,28.0,14.0,-100.00,WSW,241,27.0,45.0,54,0.00,,,-99.99,,2013-03-04 11:32:00,
2013-03-04 04:42:00,28.0,15.0,-100.00,WSW,237,29.0,52.0,57,0.00,,,-99.99,,2013-03-04 11:42:00,
2013-03-04 04:52:00,28.0,16.0,-100.00,WSW,240,24.0,42.0,60,0.00,,,-99.99,,2013-03-04 11:52:00,
2013-03-04 05:01:00,28.0,16.0,-100.00,WSW,243,22.0,34.0,61,0.00,,,-99.99,,2013-03-04 12:01:00,
2013-03-04 05:11:00,27.0,17.0,-100.00,WSW,247,19.0,34.0,63,0.00,,,-99.99,,2013-03-04 12:11:00,
2013-03-04 05:22:00,28.0,17.0,-100.00,WSW,250,16.0,25.0,64,0.00,,,-99.99,,2013-03-04 12:22:00,
2013-03-04 05:32:00,28.0,17.0,-100.00,WSW,251,16.0,24.0,65,0.00,,,-99.99,,2013-03-04 12:32:00,
2013-03-04 05:42:00,28.0,17.0,-100.00,WSW,253,18.0,29.0,63,0.00,,,-99.99,,2013-03-04 12:42:00,
2013-03-04 05:52:00,28.0,18.0,-100.00,WSW,251,16.0,28.0,66,0.00,,,-99.99,,2013-03-04 12:52:00,
2013-03-04 06:02:00,27.0,20.0,-100.00,West,261,17.0,24.0,74,0.00,,,-99.99,,2013-03-04 13:02:00,
2013-03-04 06:11:00,27.0,20.0,-100.00,West,263,17.0,30.0,75,0.01,,,-99.99,,2013-03-04 13:11:00,
2013-03-04 06:21:00,26.0,21.0,-100.00,West,263,16.0,24.0,82,0.03,,,-99.99,,2013-03-04 13:21:00,
2013-03-04 06:32:00,26.0,19.0,-100.00,West,260,15.0,28.0,75,0.00,,,-99.99,,2013-03-04 13:32:00,
2013-03-04 06:41:00,26.0,19.0,-100.00,WSW,257,16.0,26.0,75,0.01,,,-99.99,,2013-03-04 13:41:00,
2013-03-04 06:51:00,26.0,18.0,-100.00,WSW,256,16.0,27.0,71,0.00,,,-99.99,,2013-03-04 13:51:00,
2013-03-04 07:01:00,26.0,19.0,-100.00,WSW,256,17.0,27.0,76,0.00,,,-99.99,,2013-03-04 14:01:00,
2013-03-04 07:11:00,25.0,19.0,-100.00,WSW,258,18.0,29.0,77,0.00,,,-99.99,,2013-03-04 14:11:00,
2013-03-04 07:22:00,26.0,17.0,-100.00,WSW,254,17.0,34.0,70,0.00,,,-99.99,,2013-03-04 14:22:00,
2013-03-04 07:32:00,26.0,15.0,-100.00,WSW,248,17.0,32.0,63,0.00,,,-99.99,,2013-03-04 14:32:00,
2013-03-04 07:42:00,26.0,14.0,-100.00,WSW,250,20.0,31.0,60,0.00,,,-99.99,,2013-03-04 14:42:00,
2013-03-04 07:52:00,26.0,13.0,-100.00,WSW,251,21.0,34.0,59,0.00,,,-99.99,,2013-03-04 14:52:00,
2013-03-04 08:01:00,26.0,12.0,-100.00,WSW,256,26.0,39.0,55,0.00,,,-99.99,,2013-03-04 15:01:00,
2013-03-04 08:11:00,26.0,11.0,-100.00,WSW,254,26.0,38.0,54,0.00,,,-99.99,,2013-03-04 15:11:00,
2013-03-04 08:21:00,23.0,18.0,-100.00,West,267,24.0,34.0,82,0.10,,,-99.99,,2013-03-04 15:21:00,
2013-03-04 08:32:00,23.0,13.0,-100.00,West,264,28.0,35.0,65,0.00,,,-99.99,,2013-03-04 15:32:00,
2013-03-04 08:42:00,24.0,12.0,-100.00,West,263,29.0,41.0,62,0.00,,,-99.99,,2013-03-04 15:42:00,
2013-03-04 08:51:00,23.0,10.0,-100.00,West,263,30.0,42.0,57,0.00,,,-99.99,,2013-03-04 15:51:00,
2013-03-04 09:02:00,23.0,9.0,-100.00,WSW,256,26.0,35.0,54,0.00,,,-99.99,,2013-03-04 16:02:00,
2013-03-04 09:11:00,23.0,9.0,-100.00,WSW,258,24.0,35.0,54,0.00,,,-99.99,,2013-03-04 16:11:00,
2013-03-04 09:21:00,23.0,9.0,-100.00,West,260,27.0,42.0,56,0.00,,,-99.99,,2013-03-04 16:21:00,
2013-03-04 09:32:00,22.0,9.0,-100.00,WSW,258,27.0,39.0,56,0.00,,,-99.99,,2013-03-04 16:32:00,
2013-03-04 09:42:00,22.0,16.0,-100.00,West,268,27.0,38.0,79,0.00,,,-99.99,,2013-03-04 16:42:00,
2013-03-04 09:52:00,19.0,15.0,-100.00,West,277,29.0,38.0,84,0.00,,,-99.99,,2013-03-04 16:52:00,
2013-03-04 10:02:00,17.0,15.0,-100.00,WNW,291,32.0,37.0,93,0.03,,,-99.99,,2013-03-04 17:02:00,
2013-03-04 10:11:00,17.0,15.0,-100.00,WNW,291,32.0,39.0,93,0.08,,,-99.99,,2013-03-04 17:11:00,
2013-03-04 10:22:00,14.0,12.0,-100.00,WNW,284,34.0,39.0,92,0.08,,,-99.99,,2013-03-04 17:22:00,
2013-03-04 10:32:00,15.0,13.0,-100.00,WNW,287,31.0,37.0,93,0.06,,,-99.99,,2013-03-04 17:32:00,
2013-03-04 10:42:00,14.0,13.0,-100.00,WNW,282,32.0,37.0,93,0.03,,,-99.99,,2013-03-04 17:42:00,
2013-03-04 10:52:00,15.0,13.0,-100.00,West,280,29.0,36.0,93,0.01,,,-99.99,,2013-03-04 17:52:00,
2013-03-04 11:01:00,14.0,12.0,-100.00,West,281,33.0,38.0,93,0.01,,,-99.99,,2013-03-04 18:01:00,
2013-03-04 11:11:00,13.0,11.0,-100.00,West,281,32.0,37.0,91,0.00,,,-99.99,,2013-03-04 18:11:00,
2013-03-04 11:21:00,13.0,11.0,-100.00,West,280,30.0,35.0,93,0.00,,,-99.99,,2013-03-04 18:21:00,
2013-03-04 11:32:00,14.0,12.0,-100.00,West,280,30.0,35.0,92,0.00,,,-99.99,,2013-03-04 18:32:00,
2013-03-04 11:42:00,15.0,13.0,-100.00,West,278,30.0,36.0,93,0.00,,,-99.99,,2013-03-04 18:42:00,
2013-03-04 11:52:00,14.0,12.0,-100.00,West,272,30.0,38.0,90,0.00,,,-99.99,,2013-03-04 18:52:00,
2013-03-04 12:02:00,14.0,11.0,-100.00,West,270,30.0,37.0,89,0.00,,,-99.99,,2013-03-04 19:02:00,
2013-03-04 12:11:00,15.0,12.0,-100.00,West,270,31.0,39.0,88,0.00,,,-99.99,,2013-03-04 19:11:00,
2013-03-04 12:21:00,14.0,11.0,-100.00,West,270,34.0,40.0,86,0.00,,,-99.99,,2013-03-04 19:21:00,
2013-03-04 12:32:00,15.0,11.0,-100.00,West,272,32.0,39.0,87,0.00,,,-99.99,,2013-03-04 19:32:00,
2013-03-04 12:42:00,15.0,10.0,-100.00,West,271,34.0,43.0,82,0.00,,,-99.99,,2013-03-04 19:42:00,
2013-03-04 12:51:00,15.0,8.0,-100.00,West,270,34.0,40.0,71,0.00,,,-99.99,,2013-03-04 19:51:00,
2013-03-04 13:01:00,15.0,8.0,-100.00,West,270,35.0,42.0,76,0.00,,,-99.99,,2013-03-04 20:01:00,
2013-03-04 13:11:00,15.0,8.0,-100.00,West,268,34.0,42.0,73,0.00,,,-99.99,,2013-03-04 20:11:00,
2013-03-04 13:22:00,15.0,8.0,-100.00,West,268,34.0,42.0,73,0.00,,,-99.99,,2013-03-04 20:22:00,
2013-03-04 13:32:00,15.0,8.0,-100.00,West,271,35.0,44.0,74,0.00,,,-99.99,,2013-03-04 20:32:00,
2013-03-04 13:42:00,15.0,8.0,-100.00,West,270,37.0,44.0,74,0.00,,,-99.99,,2013-03-04 20:42:00,
2013-03-04 13:52:00,15.0,6.0,-100.00,West,267,31.0,40.0,67,0.00,,,-99.99,,2013-03-04 20:52:00,
2013-03-04 14:02:00,15.0,6.0,-100.00,West,268,34.0,45.0,66,0.00,,,-99.99,,2013-03-04 21:02:00,
2013-03-04 14:11:00,15.0,7.0,-100.00,West,267,35.0,45.0,69,0.00,,,-99.99,,2013-03-04 21:11:00,
2013-03-04 14:21:00,16.0,7.0,-100.00,West,272,37.0,47.0,69,0.00,,,-99.99,,2013-03-04 21:21:00,
2013-03-04 14:32:00,15.0,8.0,-100.00,West,272,37.0,45.0,70,0.00,,,-99.99,,2013-03-04 21:32:00,
2013-03-04 14:42:00,16.0,7.0,-100.00,West,270,37.0,46.0,68,0.00,,,-99.99,,2013-03-04 21:42:00,
2013-03-04 14:52:00,15.0,6.0,-100.00,West,278,37.0,45.0,68,0.00,,,-99.99,,2013-03-04 21:52:00,
2013-03-04 15:01:00,15.0,7.0,-100.00,West,281,35.0,41.0,71,0.00,,,-99.99,,2013-03-04 22:01:00,
2013-03-04 15:12:00,15.0,7.0,-100.00,WNW,284,33.0,39.0,70,0.00,,,-99.99,,2013-03-04 22:12:00,
2013-03-04 15:22:00,15.0,8.0,-100.00,WNW,284,29.0,35.0,72,0.00,,,-99.99,,2013-03-04 22:22:00,
2013-03-04 15:32:00,16.0,6.0,-100.00,West,278,27.0,32.0,66,0.00,,,-99.99,,2013-03-04 22:32:00,
2013-03-04 15:42:00,16.0,5.0,-100.00,West,278,26.0,30.0,61,0.00,,,-99.99,,2013-03-04 22:42:00,
2013-03-04 15:52:00,15.0,6.0,-100.00,West,277,24.0,31.0,67,0.00,,,-99.99,,2013-03-04 22:52:00,
2013-03-04 16:01:00,15.0,6.0,-100.00,West,277,23.0,29.0,67,0.00,,,-99.99,,2013-03-04 23:01:00,
2013-03-04 16:11:00,15.0,6.0,-100.00,West,278,23.0,29.0,69,0.00,,,-99.99,,2013-03-04 23:11:00,
2013-03-04 16:22:00,15.0,8.0,-100.00,West,277,21.0,26.0,72,0.00,,,-99.99,,2013-03-04 23:22:00,
2013-03-04 16:32:00,15.0,7.0,-100.00,West,280,21.0,27.0,72,0.00,,,-99.99,,2013-03-04 23:32:00,
2013-03-04 16:42:00,15.0,6.0,-100.00,West,274,21.0,27.0,69,0.00,,,-99.99,,2013-03-04 23:42:00,
2013-03-04 16:52:00,15.0,7.0,-100.00,West,280,21.0,27.0,70,0.00,,,-99.99,,2013-03-04 23:52:00,
2013-03-04 17:02:00,15.0,6.0,-100.00,West,272,21.0,26.0,69,0.00,,,-99.99,,2013-03-05 00:02:00,
2013-03-04 17:11:00,15.0,6.0,-100.00,West,270,20.0,26.0,68,0.00,,,-99.99,,2013-03-05 00:11:00,
2013-03-04 17:21:00,15.0,6.0,-100.00,West,270,20.0,24.0,67,0.00,,,-99.99,,2013-03-05 00:21:00,
2013-03-04 17:32:00,14.0,6.0,-100.00,West,274,22.0,27.0,69,0.00,,,-99.99,,2013-03-05 00:32:00,
2013-03-04 17:42:00,14.0,6.0,-100.00,West,274,22.0,27.0,70,0.00,,,-99.99,,2013-03-05 00:42:00,
2013-03-04 17:51:00,13.0,6.0,-100.00,West,277,21.0,26.0,73,0.00,,,-99.99,,2013-03-05 00:51:00,
2013-03-04 18:01:00,13.0,6.0,-100.00,West,275,20.0,24.0,73,0.00,,,-99.99,,2013-03-05 01:01:00,
2013-03-04 18:12:00,12.0,5.0,-100.00,West,274,19.0,23.0,73,0.00,,,-99.99,,2013-03-05 01:12:00,
2013-03-04 18:21:00,12.0,5.0,-100.00,West,272,18.0,22.0,73,0.00,,,-99.99,,2013-03-05 01:21:00,
2013-03-04 18:32:00,12.0,5.0,-100.00,West,270,17.0,21.0,73,0.00,,,-99.99,,2013-03-05 01:32:00,
2013-03-04 18:41:00,11.0,4.0,-100.00,West,267,15.0,19.0,73,0.00,,,-99.99,,2013-03-05 01:41:00,
2013-03-04 18:51:00,11.0,4.0,-100.00,West,274,14.0,17.0,72,0.00,,,-99.99,,2013-03-05 01:51:00,
2013-03-04 19:01:00,11.0,4.0,-100.00,West,281,16.0,18.0,72,0.00,,,-99.99,,2013-03-05 02:01:00,
2013-03-04 19:11:00,11.0,4.0,-100.00,WNW,284,16.0,18.0,73,0.00,,,-99.99,,2013-03-05 02:11:00,
2013-03-04 19:21:00,12.0,4.0,-100.00,West,281,16.0,21.0,71,0.00,,,-99.99,,2013-03-05 02:21:00,
2013-03-04 19:32:00,11.0,4.0,-100.00,West,280,15.0,21.0,71,0.00,,,-99.99,,2013-03-05 02:32:00,
2013-03-04 19:42:00,11.0,4.0,-100.00,WNW,289,14.0,17.0,72,0.00,,,-99.99,,2013-03-05 02:42:00,
2013-03-04 19:52:00,11.0,4.0,-100.00,WNW,289,15.0,19.0,73,0.00,,,-99.99,,2013-03-05 02:52:00,
2013-03-04 20:02:00,13.0,4.0,-100.00,West,281,17.0,27.0,66,0.00,,,-99.99,,2013-03-05 03:02:00,
2013-03-04 20:12:00,14.0,4.0,-100.00,West,263,19.0,27.0,61,0.00,,,-99.99,,2013-03-05 03:12:00,
2013-03-04 20:22:00,15.0,4.0,-100.00,West,260,21.0,27.0,62,0.00,,,-99.99,,2013-03-05 03:22:00,
2013-03-04 20:32:00,15.0,4.0,-100.00,West,261,23.0,28.0,61,0.00,,,-99.99,,2013-03-05 03:32:00,
2013-03-04 20:42:00,15.0,4.0,-100.00,West,261,23.0,29.0,63,0.00,,,-99.99,,2013-03-05 03:42:00,
2013-03-04 20:52:00,15.0,4.0,-100.00,West,261,22.0,28.0,62,0.00,,,-99.99,,2013-03-05 03:52:00,
2013-03-04 21:01:00,15.0,4.0,-100.00,West,261,23.0,29.0,62,0.00,,,-99.99,,2013-03-05 04:01:00,
2013-03-04 21:11:00,15.0,4.0,-100.00,West,260,22.0,30.0,61,0.00,,,-99.99,,2013-03-05 04:11:00,
2013-03-04 21:22:00,16.0,4.0,-100.00,West,260,22.0,29.0,60,0.00,,,-99.99,,2013-03-05 04:22:00,
2013-03-04 21:32:00,16.0,4.0,-100.00,West,261,22.0,28.0,59,0.00,,,-99.99,,2013-03-05 04:32:00,
2013-03-04 21:42:00,16.0,4.0,-100.00,West,261,22.0,29.0,59,0.00,,,-99.99,,2013-03-05 04:42:00,
2013-03-04 21:52:00,16.0,4.0,-100.00,West,263,22.0,27.0,60,0.00,,,-99.99,,2013-03-05 04:52:00,
2013-03-04 22:02:00,16.0,4.0,-100.00,West,263,20.0,24.0,58,0.00,,,-99.99,,2013-03-05 05:02:00,
2013-03-04 22:11:00,16.0,4.0,-100.00,West,261,18.0,24.0,59,0.00,,,-99.99,,2013-03-05 05:11:00,
2013-03-04 22:22:00,16.0,4.0,-100.00,West,260,16.0,23.0,58,0.00,,,-99.99,,2013-03-05 05:22:00,
2013-03-04 22:32:00,16.0,4.0,-100.00,West,263,15.0,21.0,59,0.00,,,-99.99,,2013-03-05 05:32:00,
2013-03-04 22:42:00,15.0,4.0,-100.00,West,263,12.0,17.0,61,0.00,,,-99.99,,2013-03-05 05:42:00,
2013-03-04 22:52:00,15.0,4.0,-100.00,West,260,7.0,13.0,61,0.00,,,-99.99,,2013-03-05 05:52:00,
2013-03-04 23:01:00,14.0,4.0,-100.00,West,264,4.0,7.0,63,0.00,,,-99.99,,2013-03-05 06:01:00,
2013-03-04 23:11:00,14.0,4.0,-100.00,West,272,4.0,9.0,62,0.00,,,-99.99,,2013-03-05 06:11:00,
2013-03-04 23:22:00,12.0,4.0,-100.00,NW,323,2.0,6.0,70,0.00,,,-99.99,,2013-03-05 06:22:00,
2013-03-04 23:32:00,11.0,4.0,-100.00,North,3,3.0,6.0,72,0.00,,,-99.99,,2013-03-05 06:32:00,
2013-03-04 23:41:00,10.0,3.0,-100.00,ENE,59,1.0,2.0,73,0.00,,,-99.99,,2013-03-05 06:41:00,
2013-03-04 23:52:00,10.0,4.0,-100.00,NE,34,1.0,4.0,75,0.00,,,-99.99,,2013-03-05 06:52:00,